EHI
19 16 12 9 7 5 2 1 1 3 3 3 3 3 3 2 1 2 2 1 0 0 0 0 0 0 0 0 0 0 0 0 0 0 0 0 0 0 0 0 0 0 0
17 15 11 9 6 4 2 2 2 3 3 3 3 2 2 1 0 1 1 0 0 0 0 0 0 0 0 0 0 0 0 0 0 0 0 0 0 0 0 0 0 0 0
14 12 10 8 6 5 4 4 3 3 3 3 2 1 0 0 0 0 0 0 0 0 0 0 0 0 0 0 0 0 0 0 0 0 0 0 0 0 0 0 0 0 0
11 11 10 8 6 6 7 6 4 4 3 3 3 2 1 1 0 0 0 0 0 0 0 0 0 0 0 0 0 0 0 0 0 0 0 0 0 0 0 0 0 0 0
12 11 9 8 8 8 7 5 4 4 4 3 3 3 3 2 1 0 0 0 0 0 0 0 0 0 0 0 0 0 0 0 0 0 0 0 0 0 0 0 0 0 0
12 10 8 8 8 7 5 4 3 3 3 3 3 3 3 2 1 0 0 0 0 0 0 0 0 0 0 0 0 0 0 0 0 0 0 0 0 0 0 0 0 0 0
12 11 9 8 7 6 4 3 2 2 3 3 3 3 3 2 1 0 0 0 0 0 0 0 0 0 0 0 0 0 0 0 0 0 0 0 0 0 0 0 0 0 0
12 12 11 9 7 5 3 3 1 1 2 2 2 2 2 1 0 0 0 0 0 0 0 0 0 0 0 0 0 0 0 0 0 0 0 0 0 0 0 0 0 0 0
11 11 10 9 7 4 2 2 1 0 1 1 1 1 1 0 0 0 0 0 0 0 0 0 0 0 0 0 0 0 0 0 0 0 0 0 0 0 0 0 0 0 0
9 8 8 6 4 2 1 1 0 0 0 0 0 0 0 0 0 0 0 0 0 0 0 0 0 0 0 0 0 0 0 0 0 0 0 0 0 0 0 0 0 0 0
6 5 4 3 1 0 0 0 0 0 0 0 0 0 0 0 0 0 0 0 0 0 0 0 0 0 0 0 0 0 0 0 0 0 0 0 0 0 0 0 0 0 0
5 3 1 1 0 0 0 0 0 0 0 0 0 0 0 0 0 0 0 0 0 0 0 0 0 0 0 0 0 0 0 0 0 0 0 0 0 0 0 0 0 0 0
3 2 1 0 0 0 0 0 0 0 0 0 0 0 0 0 0 0 0 0 0 0 0 0 0 0 0 0 0 0 0 0 0 0 0 0 0 0 0 0 0 0 0
1 1 0 0 0 0 0 0 0 0 0 0 0 0 0 0 0 0 0 0 0 0 0 0 0 0 0 0 0 0 0 0 0 0 0 0 0 0 0 0 0 0 0
0 0 0 0 0 0 0 0 0 0 0 0 0 0 0 0 0 0 0 0 0 0 0 0 0 0 0 0 0 0 0 0 0 0 0 0 0 0 0 0 0 0 0
0 0 0 0 0 0 0 0 0 0 0 0 0 0 0 0 0 0 0 0 0 0 0 0 0 0 0 0 0 0 0 0 0 0 0 0 0 0 0 0 0 0 0
0 0 0 0 0 0 0 0 0 0 0 0 0 0 0 0 0 0 0 0 0 0 0 0 0 0 0 0 0 0 0 0 0 0 0 0 0 0 0 0 0 0 0
0 0 0 0 0 0 0 0 0 0 0 0 0 0 0 0 0 0 0 0 0 0 0 0 0 0 0 0 0 0 0 0 0 0 0 0 0 0 0 0 0 0 0
0 0 0 0 0 0 0 0 0 0 0 0 0 0 0 0 0 0 0 0 0 0 0 0 0 0 0 0 0 0 0 0 0 0 0 0 0 0 0 0 0 0 0
0 0 0 0 0 0 0 0 0 0 0 0 0 0 0 0 0 0 0 0 0 0 0 0 0 0 0 0 0 0 0 0 0 0 0 0 0 0 0 0 0 0 0
0 0 0 0 0 0 0 0 0 0 0 0 0 0 0 0 0 0 0 0 0 0 0 0 0 0 0 0 0 0 0 0 0 0 0 0 0 0 0 0 0 0 0
0 0 0 0 0 0 0 0 0 0 0 0 0 0 0 0 0 0 0 0 0 0 0 0 0 0 0 0 0 0 0 0 0 0 0 0 0 0 0 0 0 0 0
0 0 0 0 0 0 0 0 0 0 0 0 0 0 0 0 0 0 0 0 0 0 0 0 0 0 0 0 0 0 0 0 0 0 0 0 0 0 0 0 0 0 0
0 0 0 0 0 0 0 0 0 0 0 0 0 0 0 0 0 0 0 0 0 0 0 0 0 0 0 0 0 0 0 0 0 0 0 0 0 0 0 0 0 0 0
0 0 0 0 0 0 0 0 0 0 0 0 0 0 0 0 0 0 0 0 0 0 0 0 0 0 0 0 0 0 0 0 0 0 0 0 0 0 0 0 0 0 0
0 0 0 0 0 0 0 0 0 0 0 0 0 0 0 0 0 0 0 0 0 0 0 0 0 0 0 0 0 0 0 0 0 0 0 0 0 0 0 0 0 0 0
Wind_Speed
4 3 3 3 3 3 3 2 2 2 3 3 2 2 3 2 2 2 2 2 2 1 1 1 1 1 1 1 1 1 1 2 3 2 0 0 1 1 2 2 2 2 2
4 4 4 3 4 4 3 3 3 3 4 3 3 4 4 3 3 3 2 3 2 2 1 1 1 1 1 1 1 1 1 1 2 2 0 0 1 1 2 2 2 3 2
5 5 5 4 4 4 3 4 4 5 5 5 5 5 4 4 4 3 3 3 3 2 2 2 2 2 2 1 1 1 0 0 1 2 0 1 1 1 2 2 2 2 2
6 6 5 4 4 4 4 4 5 5 5 5 5 5 5 4 4 4 4 5 5 5 4 4 4 4 3 2 2 1 1 1 2 2 1 1 1 1 2 2 2 2 2
7 6 5 5 5 5 6 5 5 5 6 5 5 6 5 5 5 5 5 5 5 5 5 5 5 7 8 5 3 2 2 2 2 2 2 1 1 1 1 1 1 1 2
7 6 6 6 6 6 6 6 6 6 6 6 6 6 6 5 7 8 6 5 5 5 5 5 5 7 9 10 10 9 7 4 3 2 1 1 0 0 1 1 2 1 1
7 6 6 6 6 5 6 6 6 6 6 7 6 6 6 7 9 9 9 6 5 5 5 4 5 6 7 5 8 12 11 11 7 3 2 1 0 1 1 2 2 2 1
7 6 6 6 6 6 6 6 5 5 5 6 6 6 6 7 9 9 9 7 6 6 6 5 5 5 6 5 6 7 7 8 7 5 4 2 2 1 2 2 3 3 3
7 6 6 6 7 6 6 5 5 5 6 5 5 5 6 6 9 9 8 5 6 7 6 6 6 5 8 8 7 7 7 6 9 11 10 9 9 9 6 4 3 4 2
6 6 6 6 7 6 6 5 5 5 6 5 6 5 6 5 7 8 7 4 5 4 5 6 9 8 8 8 6 6 6 4 5 7 8 9 8 8 9 5 3 3 2
7 7 7 6 6 6 5 5 5 6 6 6 6 5 6 6 6 8 7 4 4 4 4 4 5 9 10 9 7 5 5 4 4 5 5 6 6 6 5 5 3 2 2
8 8 7 6 6 6 6 5 5 6 6 5 5 5 5 5 6 7 8 7 6 5 3 3 4 9 11 10 8 8 9 7 5 5 5 5 4 4 4 5 5 4 3
8 8 7 7 5 5 6 5 5 4 5 4 4 3 3 3 4 7 8 8 8 4 3 5 7 9 9 7 10 10 8 5 5 5 4 3 3 3 3 4 5 5 6
9 7 7 7 6 5 4 4 4 3 4 4 3 3 2 2 3 3 3 4 5 5 4 5 8 9 7 6 6 6 5 4 4 3 3 3 3 4 4 3 3 4 4
9 8 7 6 6 6 5 4 3 2 2 4 3 3 3 2 1 1 2 2 2 2 3 4 4 4 5 5 5 5 4 4 4 3 3 3 4 4 3 3 3 3 4
9 7 6 6 5 5 5 5 7 5 5 6 6 5 2 3 3 5 6 5 5 6 6 4 3 3 3 3 3 3 3 3 3 3 3 3 3 3 3 3 3 3 3
9 8 6 6 6 5 4 5 4 5 7 7 6 6 6 5 5 5 5 6 6 7 5 3 2 2 2 2 2 2 2 2 2 2 3 2 2 2 2 3 3 3 2
8 8 8 6 6 5 5 4 4 5 3 2 3 4 4 5 5 5 5 6 5 4 3 2 2 1 2 2 2 2 2 2 2 2 2 2 2 2 2 2 2 2 2
7 6 6 6 6 5 5 4 4 4 3 2 1 1 2 3 5 5 5 4 3 2 2 2 2 2 2 2 2 2 2 2 2 2 2 2 2 2 2 1 1 2 2
5 10 9 6 6 5 5 4 4 3 3 3 2 1 1 3 2 2 2 2 2 2 2 2 2 2 2 2 2 2 3 2 3 2 2 2 2 2 1 1 1 1 1
5 7 10 7 5 5 5 5 5 4 4 3 3 3 5 3 2 2 2 1 2 2 2 2 2 2 2 2 2 3 3 2 2 2 2 2 2 2 1 1 1 1 1
5 5 5 5 5 5 5 5 5 5 5 4 2 2 5 3 2 2 2 2 2 2 3 3 3 2 2 2 2 2 2 1 1 1 1 2 2 2 1 2 2 1 1
5 5 5 4 5 6 5 5 5 5 4 4 4 3 3 3 3 3 3 2 2 2 2 3 3 2 2 2 2 2 2 1 1 1 0 1 1 1 1 1 1 1 1
5 5 5 5 4 4 4 4 4 4 4 4 4 4 4 4 3 4 3 3 3 3 3 3 3 4 4 2 1 1 1 1 1 0 0 0 1 1 1 1 1 1 1
5 5 5 4 4 4 4 4 4 4 4 4 4 4 4 4 4 4 4 3 4 4 4 4 3 4 5 4 3 2 2 1 1 0 0 1 1 1 1 1 2 2 2
5 5 4 4 4 4 4 4 4 4 4 4 4 4 4 4 4 4 4 4 4 4 4 4 5 5 5 4 4 4 3 2 1 0 0 0 1 1 2 2 3 2 2
Wind_Direction
135 124 113 108 103 96 93 91 84 72 73 70 71 75 66 53 43 51 44 48 59 21 11 20 315 315 308 311 284 259 233 190 213 250 229 311 84 81 82 90 90 91 101
133 123 115 109 102 98 91 82 78 74 69 67 62 65 64 58 52 56 49 42 48 45 18 355 311 330 352 335 324 285 248 199 183 207 290 43 70 107 107 101 95 94 86
124 117 108 102 100 97 89 79 77 74 67 62 62 62 58 53 50 49 58 51 51 42 29 23 4 30 18 351 6 4 319 49 142 153 182 51 56 82 78 74 69 66 83
116 110 107 103 101 95 87 82 79 77 72 64 62 61 59 55 51 51 58 62 57 47 38 37 33 34 21 7 29 34 66 73 80 101 98 65 58 63 91 87 56 33 50
115 110 108 103 96 89 83 79 76 74 72 67 65 59 53 52 49 53 57 67 60 50 39 38 47 51 48 48 53 46 63 75 77 83 78 57 36 56 101 131 124 89 47
117 116 110 104 96 92 86 81 77 73 70 69 64 62 55 50 51 58 66 67 63 57 47 38 44 45 47 52 57 58 65 79 88 88 85 91 55 246 174 133 132 125 89
117 114 110 107 102 97 96 85 80 75 75 72 67 63 59 49 53 59 65 69 64 56 50 43 46 45 43 45 54 55 52 55 68 103 95 84 172 240 152 120 115 115 120
119 114 111 109 105 101 98 93 87 83 80 77 71 63 60 52 55 60 67 68 63 52 49 50 52 37 41 54 60 55 46 36 41 53 67 46 44 62 117 122 119 93 64
121 120 119 118 115 109 105 102 97 93 85 78 72 66 64 49 50 60 69 69 63 50 44 46 52 50 45 59 67 64 54 38 44 55 56 52 53 59 76 89 83 91 69
127 123 120 118 118 117 112 104 99 98 95 85 68 58 61 51 48 63 74 77 70 57 43 38 44 51 51 60 71 73 66 41 39 41 40 35 37 44 51 65 87 94 86
124 116 112 112 112 112 106 102 103 100 93 83 72 54 49 47 51 64 71 78 84 73 55 36 30 44 53 58 66 69 73 72 57 56 49 37 31 30 29 32 48 89 94
118 113 110 109 112 110 106 102 103 105 98 88 76 58 38 35 47 63 72 75 79 81 65 40 38 50 56 58 62 63 67 67 59 53 47 36 31 26 23 27 35 44 57
117 115 110 100 93 97 104 109 106 106 106 102 92 80 48 27 33 51 66 70 70 72 60 56 57 59 57 54 55 60 61 62 62 58 50 30 13 16 26 29 26 32 35
122 119 113 107 97 84 82 90 104 112 118 118 116 110 85 47 30 27 39 54 56 55 46 43 51 52 54 48 45 46 49 60 76 74 57 30 24 32 33 30 34 27 35
126 124 118 112 110 97 84 73 98 102 147 146 149 145 132 109 339 50 92 69 69 76 73 52 47 47 47 41 39 38 38 45 51 47 52 44 36 35 26 21 33 38 44
135 134 132 128 123 121 115 88 54 67 83 107 125 132 115 120 109 83 76 82 83 91 82 68 60 61 65 59 56 41 34 38 40 48 51 51 46 41 31 25 38 47 45
145 145 141 139 137 138 134 127 110 56 59 76 98 110 112 114 103 91 82 80 79 87 81 78 78 78 73 66 61 62 43 22 38 51 52 45 45 42 42 34 34 39 33
148 151 149 149 149 149 146 141 138 137 123 68 52 89 102 100 91 83 83 85 63 58 77 92 94 88 83 75 65 59 46 36 42 47 46 39 39 46 45 32 30 37 28
155 156 155 152 151 151 147 143 140 139 136 134 95 44 75 84 70 72 82 88 103 89 86 93 96 91 82 80 75 70 65 54 45 48 42 34 32 44 33 21 21 25 38
151 154 153 152 152 151 149 148 149 148 147 147 153 163 124 91 81 66 69 94 109 113 113 110 97 87 87 86 79 71 61 49 39 39 29 18 13 30 27 13 19 24 6
141 147 146 145 151 155 157 159 158 156 160 165 179 175 155 140 147 142 134 134 138 133 126 118 105 94 90 88 88 80 74 54 39 31 21 13 18 17 5 18 9 10 7
141 140 140 143 145 149 155 160 159 161 167 168 171 160 157 139 142 149 155 156 151 147 144 130 121 121 129 130 125 113 98 71 25 8 7 6 12 15 18 24 16 10 16
142 141 138 141 145 149 151 157 162 166 171 175 166 154 153 162 168 167 166 161 148 143 138 128 127 126 122 124 130 137 142 167 221 213 63 9 4 6 11 3 355 355 348
145 147 147 146 145 152 156 160 162 165 166 164 161 160 165 169 171 173 172 164 154 149 144 143 148 153 152 145 141 145 161 190 204 202 108 52 358 348 354 348 328 321 325
143 146 148 148 152 155 155 159 161 160 163 167 168 168 170 170 172 175 173 166 159 158 159 158 159 161 163 162 166 177 187 175 154 146 88 64 359 343 335 319 310 305 306
143 147 147 150 156 156 156 161 166 164 165 171 172 172 175 177 178 178 174 170 166 165 168 171 176 177 176 176 181 180 185 191 202 171 145 78 7 339 333 311 311 305 299